N1SU-13 Weather Reports


Display with metric or nautical units.
time (UTC)temp
F
wind
direction
speed
MPH
gust
MPH
rain 1hr
in
rain 24hr
in
rain mn
in
humidity
%
barometer
mb
20200331085214 37 0.0 0.0 0.00 0.00 0.00 95 1013.2
20200331083440 37 0.0 0.0 0.00 0.00 0.00 95 1013.3
20200331081806 37 0.0 0.0 0.00 0.00 0.00 95 1013.1
20200331080243 37 0.0 0.0 0.00 0.00 0.00 95 1013.2
20200331074557 37 0.0 0.0 0.00 0.00 0.00 95 1013.0
20200331072848 37 0.0 0.0 0.00 0.00 0.00 94 1012.9
20200331071233 37 0.0 0.0 0.00 0.00 0.00 94 1013.2
20200331065601 37 0.0 0.0 0.00 0.00 0.00 93 1013.1
20200331063737 37 0.0 0.0 0.00 0.00 0.00 93 1013.1
20200331061902 37 0.0 0.0 0.00 0.00 0.00 93 1013.0
20200331060200 37 0.0 0.0 0.00 0.00 0.00 94 1013.0
20200331054450 37 0.0 0.0 0.00 0.00 0.00 94 1013.0
20200331052717 38 0.0 0.0 0.00 0.00 0.00 94 1013.1
20200331050924 38 0.0 0.0 0.00 0.00 0.00 94 1013.1
20200331045335 38 0.0 0.0 0.00 0.00 0.00 93 1013.0
20200331043743 38 0.0 0.0 0.00 0.00 0.00 93 1012.8
20200331042214 38 0.0 0.0 0.00 0.00 0.00 91 1013.2
20200331040531 38 0.0 0.0 0.00 0.00 0.00 91 1012.8
20200331034926 38 0.0 0.0 0.00 0.00 0.00 91 1012.7
20200331033255 38 0.0 0.0 0.00 0.00 0.00 90 1012.8
20200331031556 38 0.0 0.0 0.00 0.00 0.00 90 1012.7
20200331025731 38 0.0 0.0 0.00 0.00 0.00 90 1012.6
20200331023835 38 0.0 0.0 0.00 0.00 0.00 88 1012.6
20200331022138 39 0.0 0.0 0.00 0.00 0.00 88 1012.7
20200331020504 39 0.0 0.0 0.00 0.00 0.00 88 1012.5
20200331014930 39 0.0 0.0 0.00 0.00 0.00 87 1012.4
20200331013141 40 0.0 0.0 0.00 0.00 0.00 89 1012.5
20200331011626 40 0.0 0.0 0.00 0.00 0.00 90 1012.7
20200331005940 39 0.0 0.0 0.00 0.00 0.00 90 1004.9
20200331004139 40 0.0 0.0 0.00 0.00 0.00 91 1012.5
20200331002301 40 0.0 0.0 0.00 0.00 0.00 90 1012.5
20200331000645 41 0.0 0.0 0.00 0.00 0.00 89 1012.2
20200330234849 42 0.0 0.0 0.00 0.00 0.00 88 1012.4
20200330233300 43 0.0 0.0 0.00 0.00 0.00 84 1012.2
20200330231755 43 0.0 0.0 0.00 0.00 0.00 83 1012.1
20200330230130 43 0.0 0.0 0.00 0.00 0.00 83 1012.1
20200330224418 41 0.0 0.0 0.00 0.00 0.00 89 1012.2
20200330224416 41 0.0 0.0 0.00 0.00 0.00 88 1012.2
20200330222805 41 0.0 0.0 0.00 0.00 0.00 85 1012.3
20200330221240 43 0.0 0.0 0.00 0.00 0.00 80 1011.5
20200330215542 41 0.0 0.0 0.00 0.00 0.00 84 1011.7
20200330213941 43 0.0 0.0 0.00 0.00 0.00 82 1011.6
20200330212043 43 0.0 0.0 0.00 0.00 0.00 82 1011.4
20200330210336 42 0.0 0.0 0.00 0.00 0.00 83 1011.3
20200330205511 42 0.0 0.0 0.00 0.00 0.00 83 1011.0
20200330205313 42 0.0 0.0 0.00 0.00 0.00 82 1011.1
20200330203803 44 0.0 0.0 0.00 0.00 0.00 81 1010.9
20200330201910 45 0.0 0.0 0.00 0.00 0.00 79 1010.6
20200330200307 43 0.0 0.0 0.00 0.00 0.00 82 1010.6
20200330194450 42 0.0 0.0 0.00 0.00 0.00 87 1010.6
20200330192623 41 0.0 0.0 0.00 0.00 0.00 87 1010.6
20200330191040 42 0.0 0.0 0.00 0.00 0.00 90 1010.6
20200330185213 41 0.0 0.0 0.00 0.00 0.00 88 1010.6
20200330183623 40 0.0 0.0 0.00 0.00 0.00 87 1010.2
20200330182047 40 0.0 0.0 0.00 0.00 0.00 90 1010.2
20200330180452 39 0.0 0.0 0.00 0.00 0.00 92 1010.0
20200330174706 39 0.0 0.0 0.00 0.00 0.00 93 1010.1
20200330174704 39 0.0 0.0 0.00 0.00 0.00 92 1010.0
20200330172850 37 0.0 0.0 0.00 0.00 0.00 96 1009.8
20200330171244 37 0.0 0.0 0.00 0.00 0.00 94 1009.8
20200330165405 36 0.0 0.0 0.00 0.00 0.00 91 1010.1
20200330163853 38 0.0 0.0 0.00 0.00 0.00 93 1009.5
20200330162120 38 0.0 0.0 0.00 0.00 0.00 94 1009.3
20200330160313 38 0.0 0.0 0.00 0.00 0.00 91 1013.0
20200330154703 38 0.0 0.0 0.00 0.00 0.00 89 1008.4
20200330152955 37 0.0 0.0 0.00 0.00 0.00 89 1008.1
20200330151323 38 0.0 0.0 0.00 0.00 0.00 91 1008.0
20200330145530 38 0.0 0.0 0.00 0.00 0.00 92 1007.8
20200330143926 38 0.0 0.0 0.00 0.00 0.00 93 1007.2
20200330142053 38 0.0 0.0 0.00 0.00 0.00 94 1006.6
20200330140345 37 0.0 0.0 0.00 0.00 0.00 95 1006.5
20200330134600 38 0.0 0.0 0.00 0.00 0.00 94 1005.8
20200330133101 38 0.0 0.0 0.00 0.00 0.00 95 1005.3
20200330131323 39 0.0 0.0 0.00 0.00 0.00 94 1005.1
20200330125521 39 0.0 0.0 0.00 0.00 0.00 94 1004.2
20200330123708 41 0.0 0.0 0.00 0.00 0.00 93 1003.7
20200330122145 42 0.0 0.0 0.00 0.00 0.00 92 1002.3
20200330120516 42 0.0 0.0 0.00 0.00 0.00 93 1002.5
20200330114840 42 0.0 0.0 0.00 0.00 0.00 92 1002.2
20200330113119 42 0.0 0.0 0.00 0.00 0.00 91 1002.1
20200330111523 43 0.0 0.0 0.00 0.00 0.00 90 1002.4
20200330110012 43 0.0 0.0 0.00 0.00 0.00 87 1002.4
20200330104345 43 0.0 0.0 0.00 0.00 0.00 87 1001.7
20200330102745 44 0.0 0.0 0.00 0.00 0.00 85 1001.6
20200330101118 45 0.0 0.0 0.00 0.00 0.00 81 1002.1
20200330095353 45 0.0 0.0 0.00 0.00 0.00 77 1002.5
20200330093554 46 0.0 0.0 0.00 0.00 0.00 74 1002.7
20200330090050 46 0.0 0.0 0.00 0.00 0.00 67 1003.3